This demonstration page uses our WeatherBlox Daily Observations layout. Learn more.

Left ArrowRight Arrow

39.01783, -85.05884

Hourly Observations for August 26, 2015

Temp ( °F °C ) Dew Point ( °F °C ) Humidity (%) Winds ( mph kmh ) Pressure ( in mb ) Visibility ( mi km ) Precip ( " mm )
12:52 am 00:52 Mostly Clear 61 16.1 55 12.8 81 81 W 3 6 30.05 1018 10 16.0934 N/A
1:52 am 01:52 Mostly Cloudy 59 15 54 12.2 83 83 N N/A 30.05 1018 10 16.0934 N/A
2:52 am 02:52 Cloudy 62 16.7 56 13.3 80 80 NNW 5 7 30.04 1017 10 16.0934 N/A
3:52 am 03:52 Cloudy 62 16.7 56 13.3 80 80 N 5 7 30.05 1018 10 16.0934 N/A
4:52 am 04:52 Cloudy 63 17.2 56 13.3 78 78 NNE 3 6 30.05 1018 10 16.0934 N/A
5:52 am 05:52 Cloudy 64 17.8 54 12.2 70 70 NNE 5 7 30.05 1018 10 16.0934 N/A
6:52 am 06:52 Cloudy 63 17.2 56 13.3 78 78 N N/A 30.06 1018 10 16.0934 N/A
8:52 am 08:52 Cloudy 65 18.3 57 13.9 76 76 N 3 6 30.1 1019 10 16.0934 N/A
9:52 am 09:52 Cloudy 66 18.9 58 14.4 75 75 N 5 7 30.11 1020 10 16.0934 N/A
10:52 am 10:52 Cloudy 68 20 56 13.3 65 65 N N/A 30.11 1020 10 16.0934 N/A
11:52 am 11:52 Cloudy 71 21.7 55 12.8 57 57 VRB 3 6 30.12 1020 10 16.0934 N/A
12:52 pm 12:52 Cloudy 70 21.1 56 13.3 61 61 VRB 3 6 30.13 1020 10 16.0934 N/A
1:52 pm 13:52 Mostly Cloudy 72 22.2 55 12.8 55 55 WNW 3 6 30.12 1020 10 16.0934 N/A
2:52 pm 14:52 Mostly Cloudy 73 22.8 51 10.6 46 46 NNE 5 7 30.11 1020 10 16.0934 N/A
3:52 pm 15:52 Mostly Cloudy 74 23.3 53 11.7 48 48 VRB 5 7 30.1 1019 10 16.0934 N/A
4:52 pm 16:52 Mostly Cloudy 74 23.3 53 11.7 48 48 N 3 6 30.09 1019 10 16.0934 N/A
5:52 pm 17:52 Mostly Cloudy 76 24.4 54 12.2 47 47 N 7 11 30.09 1019 10 16.0934 N/A
6:52 pm 18:52 Partly Cloudy 74 23.3 54 12.2 50 50 VRB 5 7 30.09 1019 10 16.0934 N/A
7:52 pm 19:52 Mostly Sunny 72 22.2 54 12.2 53 53 NE 7 11 30.09 1019 10 16.0934 N/A
8:52 pm 20:52 Mostly Clear 68 20 55 12.8 63 63 E 8 13 30.09 1019 10 16.0934 N/A
9:52 pm 21:52 Mostly Cloudy 66 18.9 56 13.3 70 70 ESE 5 7 30.11 1020 10 16.0934 N/A
10:52 pm 22:52 Cloudy 66 18.9 56 13.3 70 70 E 7 11 30.12 1020 10 16.0934 N/A
11:52 pm 23:52 Cloudy 66 18.9 57 13.9 73 73 E 7 11 30.12 1020 10 16.0934 N/A

Powered by AerisWeather